,MapDate,Name,None,D0,D1,D2,D3,D4,ValidStart,ValidEnd,StatisticFormatID,SUMAREA,DSCI,RANK
0,20240625,California-Nevada DEWS,94.55,5.45,0.0,0.0,0.0,0.0,2024-06-25,2024-07-01,2,0.0,5.45,1152.0
1,20240618,California-Nevada DEWS,98.04,1.96,0.0,0.0,0.0,0.0,2024-06-18,2024-06-24,2,0.0,1.96,1223.0
2,20240611,California-Nevada DEWS,98.04,1.96,0.0,0.0,0.0,0.0,2024-06-11,2024-06-17,2,0.0,1.96,1223.0
3,20240604,California-Nevada DEWS,98.04,1.96,0.0,0.0,0.0,0.0,2024-06-04,2024-06-10,2,0.0,1.96,1223.0
4,20240528,California-Nevada DEWS,98.03,1.97,0.0,0.0,0.0,0.0,2024-05-28,2024-06-03,2,0.0,1.97,1220.5
5,20240521,California-Nevada DEWS,98.03,1.97,0.0,0.0,0.0,0.0,2024-05-21,2024-05-27,2,0.0,1.97,1220.5
6,20240514,California-Nevada DEWS,97.37,2.06,0.57,0.0,0.0,0.0,2024-05-14,2024-05-20,2,0.57,3.2,1183.0
7,20240507,California-Nevada DEWS,96.52,2.91,0.57,0.0,0.0,0.0,2024-05-07,2024-05-13,2,0.57,4.05,1170.0
8,20240430,California-Nevada DEWS,96.52,2.91,0.57,0.0,0.0,0.0,2024-04-30,2024-05-06,2,0.57,4.05,1170.0
9,20240423,California-Nevada DEWS,96.52,2.91,0.57,0.0,0.0,0.0,2024-04-23,2024-04-29,2,0.57,4.05,1170.0
10,20240416,California-Nevada DEWS,96.51,2.92,0.57,0.0,0.0,0.0,2024-04-16,2024-04-22,2,0.57,4.06,1167.5
11,20240409,California-Nevada DEWS,96.51,2.92,0.57,0.0,0.0,0.0,2024-04-09,2024-04-15,2,0.57,4.06,1167.5
12,20240402,California-Nevada DEWS,91.29,8.14,0.57,0.0,0.0,0.0,2024-04-02,2024-04-08,2,0.57,9.28,1093.0
13,20240326,California-Nevada DEWS,91.29,8.14,0.57,0.0,0.0,0.0,2024-03-26,2024-04-01,2,0.57,9.28,1093.0
14,20240319,California-Nevada DEWS,91.29,8.14,0.57,0.0,0.0,0.0,2024-03-19,2024-03-25,2,0.57,9.28,1093.0
15,20240312,California-Nevada DEWS,91.24,8.17,0.58,0.0,0.0,0.0,2024-03-12,2024-03-18,2,0.58,9.33,1090.5
16,20240305,California-Nevada DEWS,91.24,8.17,0.58,0.0,0.0,0.0,2024-03-05,2024-03-11,2,0.58,9.33,1090.5
17,20240227,California-Nevada DEWS,88.85,10.57,0.58,0.0,0.0,0.0,2024-02-27,2024-03-04,2,0.58,11.73,1070.5
18,20240220,California-Nevada DEWS,88.85,10.57,0.58,0.0,0.0,0.0,2024-02-20,2024-02-26,2,0.58,11.73,1070.5
19,20240213,California-Nevada DEWS,88.76,10.66,0.58,0.0,0.0,0.0,2024-02-13,2024-02-19,2,0.58,11.82,1069.0
20,20240206,California-Nevada DEWS,88.42,10.92,0.66,0.0,0.0,0.0,2024-02-06,2024-02-12,2,0.66,12.24,1064.0
21,20240130,California-Nevada DEWS,86.78,12.56,0.66,0.0,0.0,0.0,2024-01-30,2024-02-05,2,0.66,13.88,1048.0
22,20240123,California-Nevada DEWS,95.67,3.67,0.66,0.0,0.0,0.0,2024-01-23,2024-01-29,2,0.66,4.99,1158.0
23,20240116,California-Nevada DEWS,95.71,3.63,0.66,0.0,0.0,0.0,2024-01-16,2024-01-22,2,0.66,4.95,1160.0
24,20240109,California-Nevada DEWS,95.71,3.63,0.66,0.0,0.0,0.0,2024-01-09,2024-01-15,2,0.66,4.95,1160.0
25,20240102,California-Nevada DEWS,95.71,3.63,0.66,0.0,0.0,0.0,2024-01-02,2024-01-08,2,0.66,4.95,1160.0
26,20231226,California-Nevada DEWS,95.73,3.61,0.66,0.0,0.0,0.0,2023-12-26,2024-01-01,2,0.66,4.93,1163.5
27,20231219,California-Nevada DEWS,95.54,3.8,0.66,0.0,0.0,0.0,2023-12-19,2023-12-25,2,0.66,5.12,1155.0
28,20231212,California-Nevada DEWS,95.54,3.8,0.66,0.0,0.0,0.0,2023-12-12,2023-12-18,2,0.66,5.12,1155.0
29,20231205,California-Nevada DEWS,95.54,3.8,0.66,0.0,0.0,0.0,2023-12-05,2023-12-11,2,0.66,5.12,1155.0
30,20231128,California-Nevada DEWS,94.94,4.4,0.66,0.0,0.0,0.0,2023-11-28,2023-12-04,2,0.66,5.72,1147.0
31,20231121,California-Nevada DEWS,94.94,4.4,0.66,0.0,0.0,0.0,2023-11-21,2023-11-27,2,0.66,5.72,1147.0
32,20231114,California-Nevada DEWS,94.94,4.4,0.66,0.0,0.0,0.0,2023-11-14,2023-11-20,2,0.66,5.72,1147.0
33,20231107,California-Nevada DEWS,94.19,5.15,0.66,0.0,0.0,0.0,2023-11-07,2023-11-13,2,0.66,6.47,1133.0
34,20231031,California-Nevada DEWS,94.36,4.98,0.66,0.0,0.0,0.0,2023-10-31,2023-11-06,2,0.66,6.3,1137.0
35,20231024,California-Nevada DEWS,94.3,5.04,0.66,0.0,0.0,0.0,2023-10-24,2023-10-30,2,0.66,6.36,1135.5
36,20231017,California-Nevada DEWS,94.3,5.04,0.66,0.0,0.0,0.0,2023-10-17,2023-10-23,2,0.66,6.36,1135.5
37,20231010,California-Nevada DEWS,94.1,5.2,0.7,0.0,0.0,0.0,2023-10-10,2023-10-16,2,0.7,6.6,1130.0
38,20231003,California-Nevada DEWS,94.12,5.18,0.7,0.0,0.0,0.0,2023-10-03,2023-10-09,2,0.7,6.58,1131.5
39,20230926,California-Nevada DEWS,94.12,5.18,0.7,0.0,0.0,0.0,2023-09-26,2023-10-02,2,0.7,6.58,1131.5
40,20230919,California-Nevada DEWS,93.84,5.36,0.8,0.0,0.0,0.0,2023-09-19,2023-09-25,2,0.8,6.96,1127.0
41,20230912,California-Nevada DEWS,93.85,5.36,0.79,0.0,0.0,0.0,2023-09-12,2023-09-18,2,0.79,6.94,1128.5
42,20230905,California-Nevada DEWS,93.85,5.36,0.79,0.0,0.0,0.0,2023-09-05,2023-09-11,2,0.79,6.94,1128.5
43,20230829,California-Nevada DEWS,93.76,4.09,2.14,0.0,0.0,0.0,2023-08-29,2023-09-04,2,2.14,8.37,1099.0
44,20230822,California-Nevada DEWS,93.74,4.11,2.16,0.0,0.0,0.0,2023-08-22,2023-08-28,2,2.16,8.43,1098.0
45,20230815,California-Nevada DEWS,76.0,13.9,10.1,0.0,0.0,0.0,2023-08-15,2023-08-21,2,10.1,34.1,967.5
46,20230808,California-Nevada DEWS,75.99,13.9,10.1,0.0,0.0,0.0,2023-08-08,2023-08-14,2,10.1,34.1,967.5
47,20230801,California-Nevada DEWS,75.92,14.43,9.64,0.0,0.0,0.0,2023-08-01,2023-08-07,2,9.64,33.71,969.0
48,20230725,California-Nevada DEWS,76.08,14.41,9.51,0.0,0.0,0.0,2023-07-25,2023-07-31,2,9.51,33.43,971.0
49,20230718,California-Nevada DEWS,76.09,14.4,9.51,0.0,0.0,0.0,2023-07-18,2023-07-24,2,9.51,33.42,972.0
50,20230711,California-Nevada DEWS,74.62,15.87,9.51,0.0,0.0,0.0,2023-07-11,2023-07-17,2,9.51,34.89,964.0
51,20230704,California-Nevada DEWS,69.4,20.27,9.19,1.14,0.0,0.0,2023-07-04,2023-07-10,2,10.33,42.07,941.0
52,20230627,California-Nevada DEWS,69.33,20.33,9.19,1.14,0.0,0.0,2023-06-27,2023-07-03,2,10.33,42.13,940.0
53,20230620,California-Nevada DEWS,69.59,20.07,9.19,1.14,0.0,0.0,2023-06-20,2023-06-26,2,10.33,41.87,942.0
54,20230613,California-Nevada DEWS,69.59,19.4,9.86,1.14,0.0,0.0,2023-06-13,2023-06-19,2,11.0,42.54,939.0
55,20230606,California-Nevada DEWS,59.61,29.38,9.86,1.14,0.0,0.0,2023-06-06,2023-06-12,2,11.0,52.52,922.0
56,20230530,California-Nevada DEWS,55.7,33.29,9.86,1.14,0.0,0.0,2023-05-30,2023-06-05,2,11.0,56.43,909.0
57,20230523,California-Nevada DEWS,55.68,33.31,9.86,1.14,0.0,0.0,2023-05-23,2023-05-29,2,11.0,56.45,908.0
58,20230516,California-Nevada DEWS,53.79,33.62,11.45,1.14,0.0,0.0,2023-05-16,2023-05-22,2,12.59,59.94,895.5
59,20230509,California-Nevada DEWS,53.79,33.62,11.45,1.14,0.0,0.0,2023-05-09,2023-05-15,2,12.59,59.94,895.5
60,20230502,California-Nevada DEWS,53.79,32.41,12.65,1.14,0.0,0.0,2023-05-02,2023-05-08,2,13.79,61.13,893.5
61,20230425,California-Nevada DEWS,53.79,32.41,12.65,1.14,0.0,0.0,2023-04-25,2023-05-01,2,13.79,61.13,893.5
62,20230418,California-Nevada DEWS,52.33,33.06,13.46,1.14,0.0,0.0,2023-04-18,2023-04-24,2,14.6,63.4,883.0
63,20230411,California-Nevada DEWS,52.33,32.91,13.61,1.14,0.0,0.0,2023-04-11,2023-04-17,2,14.75,63.55,882.0
64,20230404,California-Nevada DEWS,41.91,33.4,22.8,1.89,0.0,0.0,2023-04-04,2023-04-10,2,24.69,84.67,841.0
65,20230328,California-Nevada DEWS,39.69,23.65,33.46,3.2,0.0,0.0,2023-03-28,2023-04-03,2,36.66,100.17,822.0
66,20230321,California-Nevada DEWS,30.42,15.76,40.74,13.08,0.0,0.0,2023-03-21,2023-03-27,2,53.82,136.48,771.0
67,20230314,California-Nevada DEWS,28.15,17.71,36.77,17.38,0.0,0.0,2023-03-14,2023-03-20,2,54.15,143.39,752.0
68,20230307,California-Nevada DEWS,15.8,24.51,26.13,33.56,0.0,0.0,2023-03-07,2023-03-13,2,59.69,177.45,640.0
69,20230228,California-Nevada DEWS,9.83,26.9,24.93,35.82,2.52,0.0,2023-02-28,2023-03-06,2,63.27,194.3,559.0
70,20230221,California-Nevada DEWS,0.36,13.89,42.33,40.9,2.52,0.0,2023-02-21,2023-02-27,2,85.75,231.33,371.0
71,20230214,California-Nevada DEWS,0.38,13.87,42.33,40.9,2.52,0.0,2023-02-14,2023-02-20,2,85.75,231.31,372.0
72,20230207,California-Nevada DEWS,0.38,13.87,42.33,39.11,4.31,0.0,2023-02-07,2023-02-13,2,85.75,233.1,364.0
73,20230131,California-Nevada DEWS,0.38,5.77,48.99,37.25,7.62,0.0,2023-01-31,2023-02-06,2,93.86,245.98,327.5
74,20230124,California-Nevada DEWS,0.38,5.77,48.99,37.25,7.62,0.0,2023-01-24,2023-01-30,2,93.86,245.98,327.5
75,20230117,California-Nevada DEWS,0.38,4.26,39.16,46.32,9.87,0.0,2023-01-17,2023-01-23,2,95.35,261.02,303.0
76,20230110,California-Nevada DEWS,0.0,2.72,39.07,47.96,10.25,0.0,2023-01-10,2023-01-16,2,97.28,265.74,295.0
77,20230103,California-Nevada DEWS,0.0,1.22,24.63,48.14,26.01,0.0,2023-01-03,2023-01-09,2,98.78,298.94,245.0
78,20221227,California-Nevada DEWS,0.0,1.21,10.43,57.41,26.73,4.22,2022-12-27,2023-01-02,2,98.79,322.32,204.0
79,20221220,California-Nevada DEWS,0.0,1.21,10.43,57.41,26.73,4.22,2022-12-20,2022-12-26,2,98.79,322.32,204.0
80,20221213,California-Nevada DEWS,0.0,1.21,10.43,57.41,26.73,4.22,2022-12-13,2022-12-19,2,98.79,322.32,204.0
81,20221206,California-Nevada DEWS,0.0,0.31,8.74,54.11,29.35,7.49,2022-12-06,2022-12-12,2,99.69,334.97,190.0
82,20221129,California-Nevada DEWS,0.0,0.31,8.74,51.29,32.17,7.49,2022-11-29,2022-12-05,2,99.69,337.79,183.0
83,20221122,California-Nevada DEWS,0.0,0.31,8.74,49.03,34.43,7.49,2022-11-22,2022-11-28,2,99.69,340.05,175.5
84,20221115,California-Nevada DEWS,0.0,0.31,8.74,49.03,34.43,7.49,2022-11-15,2022-11-21,2,99.69,340.05,175.5
85,20221108,California-Nevada DEWS,0.0,0.29,6.92,50.08,32.96,9.75,2022-11-08,2022-11-14,2,99.71,344.96,168.0
86,20221101,California-Nevada DEWS,0.0,0.14,4.87,51.29,33.95,9.75,2022-11-01,2022-11-07,2,99.86,348.3,159.5
87,20221025,California-Nevada DEWS,0.0,0.14,4.87,51.29,33.95,9.75,2022-10-25,2022-10-31,2,99.86,348.3,159.5
88,20221018,California-Nevada DEWS,0.0,0.14,4.87,52.56,32.68,9.75,2022-10-18,2022-10-24,2,99.86,347.03,164.0
89,20221011,California-Nevada DEWS,0.0,0.14,3.59,53.84,32.68,9.75,2022-10-11,2022-10-17,2,99.86,348.31,158.0
90,20221004,California-Nevada DEWS,0.0,0.14,3.58,53.35,33.19,9.75,2022-10-04,2022-10-10,2,99.87,348.86,155.0
91,20220927,California-Nevada DEWS,0.0,0.14,3.58,53.34,33.19,9.75,2022-09-27,2022-10-03,2,99.86,348.83,157.0
92,20220920,California-Nevada DEWS,0.0,0.14,3.55,53.37,33.19,9.75,2022-09-20,2022-09-26,2,99.86,348.86,155.0
93,20220913,California-Nevada DEWS,0.0,0.14,3.55,53.37,33.19,9.75,2022-09-13,2022-09-19,2,99.86,348.86,155.0
94,20220906,California-Nevada DEWS,0.0,0.14,1.51,53.22,35.37,9.75,2022-09-06,2022-09-12,2,99.85,353.05,149.5
95,20220830,California-Nevada DEWS,0.0,0.14,1.51,53.22,35.37,9.75,2022-08-30,2022-09-05,2,99.85,353.05,149.5
96,20220823,California-Nevada DEWS,0.0,0.14,1.51,51.47,37.13,9.75,2022-08-23,2022-08-29,2,99.86,354.84,148.0
97,20220816,California-Nevada DEWS,0.0,0.14,1.51,51.26,37.33,9.75,2022-08-16,2022-08-22,2,99.85,355.01,147.0
98,20220809,California-Nevada DEWS,0.0,0.14,1.52,49.3,37.61,11.44,2022-08-09,2022-08-15,2,99.87,358.72,142.0
99,20220802,California-Nevada DEWS,0.0,0.13,1.56,36.96,42.36,18.99,2022-08-02,2022-08-08,2,99.87,378.52,75.0
100,20220726,California-Nevada DEWS,0.0,0.13,1.56,36.96,41.59,19.76,2022-07-26,2022-08-01,2,99.87,379.29,72.5
101,20220719,California-Nevada DEWS,0.0,0.13,1.56,36.96,41.59,19.76,2022-07-19,2022-07-25,2,99.87,379.29,72.5
102,20220712,California-Nevada DEWS,0.0,0.12,1.56,37.25,41.31,19.76,2022-07-12,2022-07-18,2,99.88,379.03,74.0
103,20220705,California-Nevada DEWS,0.0,0.12,1.56,39.03,43.7,15.59,2022-07-05,2022-07-11,2,99.88,373.08,93.0
104,20220628,California-Nevada DEWS,0.0,0.12,1.55,39.03,43.7,15.59,2022-06-28,2022-07-04,2,99.87,373.06,95.5
105,20220621,California-Nevada DEWS,0.0,0.12,1.55,39.03,43.7,15.59,2022-06-21,2022-06-27,2,99.87,373.06,95.5
106,20220614,California-Nevada DEWS,0.0,0.12,1.55,39.0,43.73,15.59,2022-06-14,2022-06-20,2,99.87,373.09,91.0
107,20220607,California-Nevada DEWS,0.0,0.12,1.55,40.34,42.39,15.59,2022-06-07,2022-06-13,2,99.87,371.75,112.0
108,20220531,California-Nevada DEWS,0.0,0.08,1.55,40.39,42.39,15.59,2022-05-31,2022-06-06,2,99.92,371.86,111.0
109,20220524,California-Nevada DEWS,0.0,0.08,1.35,40.59,42.39,15.59,2022-05-24,2022-05-30,2,99.92,372.06,108.0
110,20220517,California-Nevada DEWS,0.0,0.08,2.78,39.35,49.34,8.44,2022-05-17,2022-05-23,2,99.91,363.25,130.0
111,20220510,California-Nevada DEWS,0.0,0.08,2.78,39.35,54.38,3.4,2022-05-10,2022-05-16,2,99.91,358.21,143.0
112,20220503,California-Nevada DEWS,0.0,0.0,2.84,52.07,41.69,3.4,2022-05-03,2022-05-09,2,100.0,345.65,165.0
113,20220426,California-Nevada DEWS,0.0,0.0,2.84,52.41,41.35,3.4,2022-04-26,2022-05-02,2,100.0,345.31,166.0
114,20220419,California-Nevada DEWS,0.0,0.0,2.84,53.03,41.05,3.08,2022-04-19,2022-04-25,2,100.0,344.37,170.0
115,20220412,California-Nevada DEWS,0.0,0.0,2.5,49.83,44.58,3.08,2022-04-12,2022-04-18,2,99.99,348.21,161.0
116,20220405,California-Nevada DEWS,0.0,0.0,3.74,55.84,37.34,3.08,2022-04-05,2022-04-11,2,100.0,339.76,177.0
117,20220329,California-Nevada DEWS,0.0,0.0,3.74,57.86,35.32,3.09,2022-03-29,2022-04-04,2,100.01,337.79,184.0
118,20220322,California-Nevada DEWS,0.0,0.0,3.74,59.42,33.76,3.09,2022-03-22,2022-03-28,2,100.01,336.23,187.0
119,20220315,California-Nevada DEWS,0.0,0.0,3.99,60.63,32.3,3.09,2022-03-15,2022-03-21,2,100.01,334.52,191.0
120,20220308,California-Nevada DEWS,0.0,0.0,7.67,70.13,19.11,3.09,2022-03-08,2022-03-14,2,100.0,317.62,210.5
121,20220301,California-Nevada DEWS,0.0,0.0,7.67,70.13,19.11,3.09,2022-03-01,2022-03-07,2,100.0,317.62,210.5
122,20220222,California-Nevada DEWS,0.0,0.0,31.75,55.32,9.84,3.09,2022-02-22,2022-02-28,2,100.0,284.27,270.0
123,20220215,California-Nevada DEWS,0.0,0.25,32.9,57.05,6.71,3.09,2022-02-15,2022-02-21,2,99.75,279.49,278.0
124,20220208,California-Nevada DEWS,0.0,0.44,32.95,56.8,6.71,3.09,2022-02-08,2022-02-14,2,99.55,279.03,279.0
125,20220201,California-Nevada DEWS,0.0,0.44,32.99,56.77,6.71,3.09,2022-02-01,2022-02-07,2,99.56,279.02,281.5
126,20220125,California-Nevada DEWS,0.0,0.44,32.99,56.77,6.71,3.09,2022-01-25,2022-01-31,2,99.56,279.02,281.5
127,20220118,California-Nevada DEWS,0.0,0.44,32.99,56.77,6.71,3.09,2022-01-18,2022-01-24,2,99.56,279.02,281.5
128,20220111,California-Nevada DEWS,0.0,0.44,32.99,56.77,6.71,3.09,2022-01-11,2022-01-17,2,99.56,279.02,281.5
129,20220104,California-Nevada DEWS,0.0,0.41,31.78,48.07,16.15,3.58,2022-01-04,2022-01-10,2,99.58,290.68,266.0
130,20211228,California-Nevada DEWS,0.0,0.0,12.49,56.55,27.38,3.58,2021-12-28,2022-01-03,2,100.0,322.05,206.0
131,20211221,California-Nevada DEWS,0.0,0.0,8.58,21.55,46.5,23.38,2021-12-21,2021-12-27,2,100.01,384.71,60.0
132,20211214,California-Nevada DEWS,0.0,0.0,8.58,21.0,43.55,26.88,2021-12-14,2021-12-20,2,100.01,388.76,50.0
133,20211207,California-Nevada DEWS,0.0,0.0,8.58,21.0,43.49,26.93,2021-12-07,2021-12-13,2,100.0,388.77,48.0
134,20211130,California-Nevada DEWS,0.0,0.0,8.58,21.0,43.49,26.93,2021-11-30,2021-12-06,2,100.0,388.77,48.0
135,20211123,California-Nevada DEWS,0.0,0.0,8.58,21.0,43.49,26.93,2021-11-23,2021-11-29,2,100.0,388.77,48.0
136,20211116,California-Nevada DEWS,0.0,0.0,6.41,22.97,38.19,32.44,2021-11-16,2021-11-22,2,100.01,396.69,33.5
137,20211109,California-Nevada DEWS,0.0,0.0,6.41,22.97,38.19,32.44,2021-11-09,2021-11-15,2,100.01,396.69,33.5
138,20211102,California-Nevada DEWS,0.0,0.0,5.6,21.98,39.32,33.1,2021-11-02,2021-11-08,2,100.0,399.92,29.0
139,20211026,California-Nevada DEWS,0.0,0.0,5.6,21.48,39.82,33.1,2021-10-26,2021-11-01,2,100.0,400.42,28.0
140,20211019,California-Nevada DEWS,0.0,0.0,5.6,15.28,41.96,37.17,2021-10-19,2021-10-25,2,100.01,410.73,20.0
141,20211012,California-Nevada DEWS,0.0,0.0,5.56,15.32,41.96,37.17,2021-10-12,2021-10-18,2,100.01,410.77,19.0
142,20211005,California-Nevada DEWS,0.0,0.0,5.56,14.9,42.37,37.17,2021-10-05,2021-10-11,2,100.0,411.15,17.5
143,20210928,California-Nevada DEWS,0.0,0.0,5.56,14.9,42.37,37.17,2021-09-28,2021-10-04,2,100.0,411.15,17.5
144,20210921,California-Nevada DEWS,0.0,0.0,5.56,14.9,41.99,37.54,2021-09-21,2021-09-27,2,99.99,411.48,16.0
145,20210914,California-Nevada DEWS,0.0,0.0,5.56,14.87,42.03,37.54,2021-09-14,2021-09-20,2,100.0,411.55,14.5
146,20210907,California-Nevada DEWS,0.0,0.0,5.56,14.87,42.03,37.54,2021-09-07,2021-09-13,2,100.0,411.55,14.5
147,20210831,California-Nevada DEWS,0.0,0.0,4.59,15.49,41.2,38.71,2021-08-31,2021-09-06,2,99.99,414.0,6.0
148,20210824,California-Nevada DEWS,0.0,0.0,4.59,15.73,40.74,38.94,2021-08-24,2021-08-30,2,100.0,414.03,5.0
149,20210817,California-Nevada DEWS,0.0,0.0,4.59,14.2,39.17,42.05,2021-08-17,2021-08-23,2,100.01,418.71,2.0
150,20210810,California-Nevada DEWS,0.0,0.0,5.0,13.78,40.27,40.94,2021-08-10,2021-08-16,2,99.99,417.12,3.0
151,20210803,California-Nevada DEWS,0.0,0.0,5.0,13.78,40.66,40.56,2021-08-03,2021-08-09,2,100.0,416.78,4.0
152,20210727,California-Nevada DEWS,0.0,0.0,5.0,10.54,43.83,40.64,2021-07-27,2021-08-02,2,100.01,420.14,1.0
153,20210720,California-Nevada DEWS,0.0,0.0,5.19,12.13,46.29,36.39,2021-07-20,2021-07-26,2,100.0,413.88,7.0
154,20210713,California-Nevada DEWS,0.0,0.0,5.19,12.15,46.35,36.31,2021-07-13,2021-07-19,2,100.0,413.78,8.0
155,20210706,California-Nevada DEWS,0.0,0.0,5.21,12.87,45.61,36.31,2021-07-06,2021-07-12,2,100.0,413.02,9.5
156,20210629,California-Nevada DEWS,0.0,0.0,5.21,12.87,45.61,36.31,2021-06-29,2021-07-05,2,100.0,413.02,9.5
157,20210622,California-Nevada DEWS,0.0,0.0,5.21,13.22,45.26,36.31,2021-06-22,2021-06-28,2,100.0,412.67,11.0
158,20210615,California-Nevada DEWS,0.0,0.0,5.38,13.05,45.26,36.31,2021-06-15,2021-06-21,2,100.0,412.5,12.0
159,20210608,California-Nevada DEWS,0.0,0.0,5.38,13.19,45.12,36.31,2021-06-08,2021-06-14,2,100.0,412.36,13.0
160,20210601,California-Nevada DEWS,0.0,0.0,5.57,19.33,43.07,32.02,2021-06-01,2021-06-07,2,99.99,401.51,26.5
161,20210525,California-Nevada DEWS,0.0,0.0,5.57,19.33,43.07,32.02,2021-05-25,2021-05-31,2,99.99,401.51,26.5
162,20210518,California-Nevada DEWS,0.0,0.0,5.75,20.05,48.14,26.06,2021-05-18,2021-05-24,2,100.0,394.51,35.0
163,20210511,California-Nevada DEWS,0.0,0.0,5.6,20.2,49.55,24.65,2021-05-11,2021-05-17,2,100.0,393.25,36.0
164,20210504,California-Nevada DEWS,0.0,1.46,4.98,19.77,54.12,19.67,2021-05-04,2021-05-10,2,98.54,385.56,58.0
165,20210427,California-Nevada DEWS,0.0,1.47,8.98,27.8,42.08,19.67,2021-04-27,2021-05-03,2,98.53,369.5,126.0
166,20210420,California-Nevada DEWS,0.0,2.04,9.93,28.05,40.32,19.67,2021-04-20,2021-04-26,2,97.97,365.68,128.0
167,20210413,California-Nevada DEWS,0.46,2.99,13.5,29.64,33.73,19.67,2021-04-13,2021-04-19,2,96.54,352.18,151.0
168,20210406,California-Nevada DEWS,0.45,3.88,16.92,27.27,31.81,19.67,2021-04-06,2021-04-12,2,95.67,345.12,167.0
169,20210330,California-Nevada DEWS,0.45,5.04,19.08,27.11,28.65,19.67,2021-03-30,2021-04-05,2,94.51,337.48,186.0
170,20210323,California-Nevada DEWS,0.41,5.08,19.08,27.11,28.65,19.67,2021-03-23,2021-03-29,2,94.51,337.52,185.0
171,20210316,California-Nevada DEWS,0.46,5.06,22.19,25.28,28.29,18.73,2021-03-16,2021-03-22,2,94.49,332.09,194.0
172,20210309,California-Nevada DEWS,0.44,4.92,22.35,25.28,28.29,18.73,2021-03-09,2021-03-15,2,94.65,332.27,193.0
173,20210302,California-Nevada DEWS,0.44,4.92,23.43,22.52,29.96,18.73,2021-03-02,2021-03-08,2,94.64,332.83,192.0
174,20210223,California-Nevada DEWS,0.41,8.48,19.88,22.53,29.96,18.73,2021-02-23,2021-03-01,2,91.1,329.32,197.0
175,20210216,California-Nevada DEWS,0.41,8.48,19.53,22.05,35.76,13.76,2021-02-16,2021-02-22,2,91.1,325.53,201.0
176,20210209,California-Nevada DEWS,0.38,8.39,19.01,21.16,37.05,14.01,2021-02-09,2021-02-15,2,91.23,328.14,198.0
177,20210202,California-Nevada DEWS,0.0,8.25,19.2,21.36,37.19,14.01,2021-02-02,2021-02-08,2,91.76,329.54,196.0
178,20210126,California-Nevada DEWS,0.0,2.95,14.18,26.9,41.77,14.19,2021-01-26,2021-02-01,2,97.04,350.04,153.0
179,20210119,California-Nevada DEWS,0.0,2.95,13.54,30.44,42.64,10.44,2021-01-19,2021-01-25,2,97.06,344.11,172.0
180,20210112,California-Nevada DEWS,0.0,2.95,12.99,30.97,42.66,10.44,2021-01-12,2021-01-18,2,97.06,344.68,169.0
181,20210105,California-Nevada DEWS,0.0,2.95,15.78,31.53,39.29,10.44,2021-01-05,2021-01-11,2,97.04,338.46,179.0
182,20201229,California-Nevada DEWS,0.0,2.96,15.77,31.58,39.24,10.44,2020-12-29,2021-01-04,2,97.03,338.4,181.0
183,20201222,California-Nevada DEWS,0.0,2.96,15.77,31.58,39.24,10.44,2020-12-22,2020-12-28,2,97.03,338.4,181.0
184,20201215,California-Nevada DEWS,0.0,2.96,15.77,31.58,39.24,10.44,2020-12-15,2020-12-21,2,97.03,338.4,181.0
185,20201208,California-Nevada DEWS,0.0,2.96,20.24,34.92,33.15,8.73,2020-12-08,2020-12-14,2,97.04,324.45,202.0
186,20201201,California-Nevada DEWS,2.04,12.92,22.44,22.45,31.41,8.73,2020-12-01,2020-12-07,2,85.03,294.44,261.0
187,20201124,California-Nevada DEWS,2.06,12.9,22.44,22.51,32.87,7.22,2020-11-24,2020-11-30,2,85.04,292.89,263.0
188,20201117,California-Nevada DEWS,9.19,8.19,24.72,21.69,33.83,2.39,2020-11-17,2020-11-23,2,82.63,269.97,289.0
189,20201110,California-Nevada DEWS,9.11,8.27,24.72,21.69,33.83,2.39,2020-11-10,2020-11-16,2,82.63,270.05,288.0
190,20201103,California-Nevada DEWS,9.11,10.26,26.9,22.29,29.05,2.39,2020-11-03,2020-11-09,2,80.63,259.08,307.0
191,20201027,California-Nevada DEWS,9.06,10.31,26.9,22.29,29.05,2.39,2020-10-27,2020-11-02,2,80.63,259.13,305.0
192,20201020,California-Nevada DEWS,9.06,10.31,26.9,22.29,29.05,2.39,2020-10-20,2020-10-26,2,80.63,259.13,305.0
193,20201013,California-Nevada DEWS,9.06,10.31,26.9,22.29,29.05,2.39,2020-10-13,2020-10-19,2,80.63,259.13,305.0
194,20201006,California-Nevada DEWS,9.06,10.31,27.02,24.97,26.26,2.39,2020-10-06,2020-10-12,2,80.64,256.25,308.0
195,20200929,California-Nevada DEWS,9.22,11.0,26.15,24.98,26.26,2.39,2020-09-29,2020-10-05,2,79.78,255.23,309.0
196,20200922,California-Nevada DEWS,9.38,11.18,26.16,31.56,19.35,2.39,2020-09-22,2020-09-28,2,79.46,247.53,324.0
197,20200915,California-Nevada DEWS,9.39,11.16,26.56,37.85,13.02,2.02,2020-09-15,2020-09-21,2,79.45,240.01,344.0
198,20200908,California-Nevada DEWS,12.23,16.39,21.13,39.79,10.46,0.0,2020-09-08,2020-09-14,2,71.38,219.86,434.0
199,20200901,California-Nevada DEWS,12.23,16.38,21.85,39.91,9.63,0.0,2020-09-01,2020-09-07,2,71.39,218.33,440.0
200,20200825,California-Nevada DEWS,12.31,16.29,23.05,38.72,9.63,0.0,2020-08-25,2020-08-31,2,71.4,217.07,445.0
201,20200818,California-Nevada DEWS,12.53,16.19,36.95,28.8,5.52,0.0,2020-08-18,2020-08-24,2,71.27,198.57,542.0
202,20200811,California-Nevada DEWS,20.31,11.71,36.26,26.34,5.38,0.0,2020-08-11,2020-08-17,2,67.98,184.77,603.0
203,20200804,California-Nevada DEWS,20.31,11.72,36.38,27.68,3.91,0.0,2020-08-04,2020-08-10,2,67.97,183.16,609.0
204,20200728,California-Nevada DEWS,24.81,8.42,39.0,24.9,2.88,0.0,2020-07-28,2020-08-03,2,66.78,172.64,660.0
205,20200721,California-Nevada DEWS,24.81,13.97,38.28,21.15,1.79,0.0,2020-07-21,2020-07-27,2,61.22,161.14,692.0
206,20200714,California-Nevada DEWS,27.06,12.3,40.06,19.14,1.44,0.0,2020-07-14,2020-07-20,2,60.64,155.6,711.0
207,20200707,California-Nevada DEWS,30.98,15.46,33.36,18.75,1.44,0.0,2020-07-07,2020-07-13,2,53.55,144.19,742.5
208,20200630,California-Nevada DEWS,30.98,15.46,33.36,18.75,1.44,0.0,2020-06-30,2020-07-06,2,53.55,144.19,742.5
209,20200623,California-Nevada DEWS,30.82,14.85,34.14,18.75,1.44,0.0,2020-06-23,2020-06-29,2,54.33,145.14,737.0
210,20200616,California-Nevada DEWS,30.82,14.85,34.77,18.12,1.44,0.0,2020-06-16,2020-06-22,2,54.33,144.51,738.0
211,20200609,California-Nevada DEWS,30.8,14.87,34.87,18.02,1.44,0.0,2020-06-09,2020-06-15,2,54.33,144.43,740.0
212,20200602,California-Nevada DEWS,31.44,14.25,34.85,17.71,1.75,0.0,2020-06-02,2020-06-08,2,54.31,144.08,745.0
213,20200526,California-Nevada DEWS,31.44,14.25,34.85,17.71,1.75,0.0,2020-05-26,2020-06-01,2,54.31,144.08,745.0
214,20200519,California-Nevada DEWS,31.44,14.25,34.85,17.71,1.75,0.0,2020-05-19,2020-05-25,2,54.31,144.08,745.0
215,20200512,California-Nevada DEWS,31.44,16.8,34.96,15.05,1.76,0.0,2020-05-12,2020-05-18,2,51.77,138.91,764.0
216,20200505,California-Nevada DEWS,31.96,20.33,33.37,12.02,2.32,0.0,2020-05-05,2020-05-11,2,47.71,132.41,773.0
217,20200428,California-Nevada DEWS,32.47,25.81,28.29,10.68,2.74,0.0,2020-04-28,2020-05-04,2,41.71,125.39,780.0
218,20200421,California-Nevada DEWS,36.46,26.22,25.79,8.79,2.74,0.0,2020-04-21,2020-04-27,2,37.32,115.13,802.0
219,20200414,California-Nevada DEWS,36.46,26.22,29.77,7.55,0.0,0.0,2020-04-14,2020-04-20,2,37.32,108.41,807.0